EZY120B LTFM-LIRN

Flight info

Callsign EZY120B
Flight time 1h 52m
Altitude 38000
Route BARPE1D/35L BARPE UM603 GOLDO DCT PINDO DCT GOKEL DCT TOPNO DCT DOGUS/N0324F180 L995 EKTOL
Aircraft A20N/M-SDE2E3FGHIRWXY/LB1

Departure

Time 2026-05-04 14:52
Airport İstanbul Airport (LTFM)

Arrival

Time 2026-05-04 16:44
Airport Naples International Airport (LIRN)
Time Latitude Longitude Altitude Speed Heading
2026-05-04 14:14 41.26089 28.73595 334 ft 0 kts 107°
2026-05-04 14:40 41.26093 28.73578 334 ft 2 kts 108°
2026-05-04 14:40 41.26098 28.73559 334 ft 2 kts 107°
2026-05-04 14:41 41.26102 28.73540 334 ft 2 kts 107°
2026-05-04 14:41 41.26106 28.73521 334 ft 2 kts 107°
2026-05-04 14:41 41.26105 28.73495 334 ft 1 kts 36°
2026-05-04 14:42 41.26094 28.73490 334 ft 0 kts 15°
2026-05-04 14:46 41.26103 28.73493 334 ft 4 kts 15°
2026-05-04 14:47 41.26146 28.73507 334 ft 7 kts 13°
2026-05-04 14:47 41.26196 28.73500 334 ft 7 kts 320°
2026-05-04 14:47 41.26211 28.73427 334 ft 8 kts 273°
2026-05-04 14:47 41.26213 28.73341 334 ft 6 kts 270°
2026-05-04 14:48 41.26213 28.73280 334 ft 11 kts 270°
2026-05-04 14:48 41.26212 28.73163 334 ft 11 kts 268°
2026-05-04 14:48 41.26208 28.73056 334 ft 12 kts 267°
2026-05-04 14:48 41.26206 28.72995 334 ft 0 kts 268°
2026-05-04 14:49 41.26205 28.72978 334 ft 0 kts 270°
2026-05-04 14:49 41.26205 28.72973 334 ft 3 kts 270°
2026-05-04 14:49 41.26205 28.72868 334 ft 15 kts 270°
2026-05-04 14:50 41.26203 28.72716 334 ft 11 kts 268°
2026-05-04 14:50 41.26203 28.72608 334 ft 11 kts 271°
2026-05-04 14:50 41.26242 28.72529 334 ft 11 kts 345°
2026-05-04 14:50 41.26326 28.72522 334 ft 12 kts 359°
2026-05-04 14:51 41.26415 28.72521 334 ft 14 kts 359°
2026-05-04 14:51 41.26741 28.72513 334 ft 82 kts 359°
2026-05-04 14:51 41.27536 28.72497 334 ft 143 kts 359°
2026-05-04 14:51 41.28635 28.72483 682 ft 163 kts 356°
2026-05-04 14:52 41.29710 28.72385 1539 ft 155 kts 355°
2026-05-04 14:52 41.30739 28.72235 2367 ft 151 kts 354°
2026-05-04 14:52 41.31789 28.72110 3005 ft 158 kts 356°
2026-05-04 14:52 41.32921 28.72159 3603 ft 169 kts
2026-05-04 14:53 41.34150 28.72328 4084 ft 188 kts
2026-05-04 14:53 41.35530 28.72357 4553 ft 210 kts 348°
2026-05-04 14:53 41.36898 28.71471 5107 ft 233 kts 323°
2026-05-04 14:53 41.37878 28.69701 5811 ft 254 kts 298°
2026-05-04 14:54 41.38174 28.67354 6737 ft 271 kts 272°
2026-05-04 14:54 41.37784 28.64851 7654 ft 281 kts 263°
2026-05-04 14:54 41.37293 28.62345 8462 ft 287 kts 263°
2026-05-04 14:54 41.36781 28.59755 9269 ft 294 kts 263°
2026-05-04 14:55 41.36264 28.57133 10068 ft 299 kts 263°
2026-05-04 14:55 41.35730 28.54403 10713 ft 310 kts 263°
2026-05-04 14:55 41.35183 28.51576 11150 ft 328 kts 263°
2026-05-04 14:55 41.34603 28.48601 11763 ft 338 kts 262°
2026-05-04 14:56 41.34003 28.45556 12542 ft 343 kts 262°
2026-05-04 14:56 41.33400 28.42515 13289 ft 347 kts 262°
2026-05-04 14:56 41.32777 28.39376 14046 ft 351 kts 262°
2026-05-04 14:56 41.32160 28.36263 14769 ft 355 kts 262°
2026-05-04 14:57 41.31524 28.33045 15459 ft 360 kts 261°
2026-05-04 14:57 41.30886 28.29827 16095 ft 365 kts 261°
2026-05-04 14:57 41.30244 28.26590 16757 ft 370 kts 260°
2026-05-04 14:57 41.29585 28.23263 17388 ft 374 kts 260°
2026-05-04 14:58 41.28915 28.19896 17978 ft 380 kts 260°
2026-05-04 14:58 41.28238 28.16504 18598 ft 384 kts 260°
2026-05-04 14:58 41.27547 28.13065 19209 ft 388 kts 260°
2026-05-04 14:58 41.27088 28.10776 19593 ft 391 kts 260°
2026-05-04 14:59 41.26153 28.06113 20376 ft 395 kts 260°
2026-05-04 14:59 41.25446 28.02591 20999 ft 398 kts 260°
2026-05-04 14:59 41.24011 27.95455 22142 ft 406 kts 260°
2026-05-04 15:00 41.23279 27.91821 22680 ft 409 kts 260°
2026-05-04 15:00 41.22547 27.88192 23202 ft 413 kts 260°
2026-05-04 15:00 41.21803 27.84510 23742 ft 417 kts 259°
2026-05-04 15:01 41.20287 27.77048 24027 ft 418 kts 260°
2026-05-04 15:01 41.19534 27.73355 24031 ft 418 kts 260°
2026-05-04 15:01 41.18769 27.69604 24033 ft 418 kts 259°
2026-05-04 15:01 41.18011 27.65904 24032 ft 418 kts 259°
2026-05-04 15:02 41.17254 27.62210 24032 ft 418 kts 259°
2026-05-04 15:02 41.16497 27.58515 24033 ft 418 kts 259°
2026-05-04 15:02 41.15734 27.54795 24032 ft 419 kts 259°
2026-05-04 15:02 41.14965 27.51047 24036 ft 418 kts 259°
2026-05-04 15:03 41.14208 27.47374 24039 ft 418 kts 259°
2026-05-04 15:03 41.13438 27.43642 24040 ft 417 kts 259°
2026-05-04 15:03 41.12671 27.39939 24045 ft 417 kts 259°
2026-05-04 15:03 41.11901 27.36222 24100 ft 420 kts 259°
2026-05-04 15:04 41.11126 27.32478 24541 ft 424 kts 258°
2026-05-04 15:04 41.10345 27.28719 25175 ft 425 kts 258°
2026-05-04 15:04 41.09568 27.24986 25717 ft 427 kts 257°
2026-05-04 15:04 41.08767 27.21149 26213 ft 430 kts 257°
2026-05-04 15:05 41.07980 27.17381 26676 ft 433 kts 257°
2026-05-04 15:05 41.07167 27.13495 27140 ft 436 kts 257°
2026-05-04 15:05 41.06361 27.09643 27591 ft 439 kts 257°
2026-05-04 15:05 41.05547 27.05769 28045 ft 441 kts 257°
2026-05-04 15:06 41.04720 27.01838 28467 ft 445 kts 257°
2026-05-04 15:06 41.03886 26.97886 28851 ft 448 kts 257°
2026-05-04 15:06 41.03054 26.93949 29261 ft 451 kts 257°
2026-05-04 15:07 41.01351 26.85920 29998 ft 456 kts 257°
2026-05-04 15:07 40.99635 26.77854 30038 ft 456 kts 257°
2026-05-04 15:08 40.97919 26.69823 30032 ft 457 kts 257°
2026-05-04 15:08 40.96190 26.61753 30030 ft 457 kts 256°
2026-05-04 15:09 40.94456 26.53695 30030 ft 456 kts 256°
2026-05-04 15:09 40.92721 26.45674 30039 ft 456 kts 256°
2026-05-04 15:10 40.90968 26.37600 30705 ft 460 kts 256°
2026-05-04 15:10 40.90085 26.33535 31129 ft 461 kts 255°
2026-05-04 15:10 40.88541 26.25342 32100 ft 456 kts 261°
2026-05-04 15:11 40.88056 26.21243 32606 ft 452 kts 265°
2026-05-04 15:11 40.87764 26.17111 33068 ft 450 kts 268°
2026-05-04 15:11 40.87546 26.13015 33482 ft 448 kts 269°
2026-05-04 15:11 40.87342 26.08975 33891 ft 447 kts 269°
2026-05-04 15:12 40.87132 26.04891 34290 ft 445 kts 268°
2026-05-04 15:12 40.86917 26.00827 34680 ft 444 kts 268°
2026-05-04 15:12 40.86701 25.96801 34980 ft 442 kts 268°
2026-05-04 15:12 40.86479 25.92756 35248 ft 440 kts 268°
2026-05-04 15:13 40.86256 25.88735 35527 ft 439 kts 268°
2026-05-04 15:13 40.86033 25.84744 35773 ft 437 kts 268°
2026-05-04 15:13 40.85808 25.80759 36014 ft 435 kts 268°
2026-05-04 15:13 40.85584 25.76794 36202 ft 434 kts 268°
2026-05-04 15:14 40.85360 25.72853 36378 ft 433 kts 269°
2026-05-04 15:14 40.85135 25.68923 36580 ft 433 kts 269°
2026-05-04 15:14 40.84906 25.64956 36774 ft 433 kts 269°
2026-05-04 15:14 40.84677 25.60999 36972 ft 433 kts 269°
2026-05-04 15:15 40.84449 25.57068 37157 ft 433 kts 269°
2026-05-04 15:15 40.84216 25.53100 37340 ft 433 kts 269°
2026-05-04 15:15 40.83986 25.49200 37529 ft 433 kts 269°
2026-05-04 15:16 40.83513 25.41276 37845 ft 434 kts 269°
2026-05-04 15:16 40.83276 25.37337 37965 ft 434 kts 269°
2026-05-04 15:17 40.82552 25.25416 38049 ft 434 kts 268°
2026-05-04 15:17 40.81822 25.13568 38053 ft 434 kts 268°
2026-05-04 15:18 40.81325 25.05623 38048 ft 434 kts 268°
2026-05-04 15:19 40.80571 24.93799 38045 ft 432 kts 268°
2026-05-04 15:19 40.79810 24.82009 38051 ft 432 kts 268°
2026-05-04 15:20 40.79295 24.74114 38058 ft 432 kts 268°
2026-05-04 15:20 40.78775 24.66245 38052 ft 431 kts 268°
2026-05-04 15:21 40.78253 24.58451 38058 ft 430 kts 268°
2026-05-04 15:22 40.77456 24.46677 38045 ft 431 kts 268°
2026-05-04 15:22 40.76646 24.34869 38050 ft 431 kts 268°
2026-05-04 15:23 40.76100 24.27026 38049 ft 431 kts 268°
2026-05-04 15:23 40.75552 24.19210 38058 ft 430 kts 268°
2026-05-04 15:24 40.74437 24.03592 38056 ft 430 kts 268°
2026-05-04 15:25 40.73873 23.95771 38061 ft 430 kts 268°
2026-05-04 15:26 40.73012 23.84025 38058 ft 429 kts 268°
2026-05-04 15:26 40.72143 23.72307 38063 ft 428 kts 268°
2026-05-04 15:27 40.71267 23.60639 38065 ft 429 kts 268°
2026-05-04 15:28 40.70373 23.48937 38072 ft 428 kts 268°
2026-05-04 15:29 40.69471 23.37265 38072 ft 429 kts 269°
2026-05-04 15:30 40.67316 23.09985 38079 ft 427 kts 268°
2026-05-04 15:31 40.66381 22.98378 38072 ft 427 kts 268°
2026-05-04 15:32 40.64791 22.79023 38076 ft 426 kts 268°
2026-05-04 15:34 40.63174 22.59731 38078 ft 425 kts 268°
2026-05-04 15:34 40.62186 22.48134 38079 ft 424 kts 269°
2026-05-04 15:35 40.61195 22.36622 38083 ft 423 kts 269°
2026-05-04 15:36 40.60194 22.25145 38074 ft 423 kts 268°
2026-05-04 15:36 40.59520 22.17477 38082 ft 422 kts 268°
2026-05-04 15:37 40.58843 22.09868 38093 ft 421 kts 268°
2026-05-04 15:37 40.58161 22.02226 38105 ft 422 kts 269°
2026-05-04 15:38 40.57471 21.94561 38118 ft 422 kts 269°
2026-05-04 15:38 40.56781 21.86953 38127 ft 421 kts 268°
2026-05-04 15:39 40.56087 21.79361 38127 ft 420 kts 269°
2026-05-04 15:40 40.55034 21.67965 38124 ft 419 kts 269°
2026-05-04 15:40 40.54328 21.60375 38126 ft 420 kts 269°
2026-05-04 15:41 40.53618 21.52798 38133 ft 419 kts 269°
2026-05-04 15:41 40.52900 21.45195 38146 ft 419 kts 269°
2026-05-04 15:42 40.52182 21.37669 38137 ft 418 kts 269°
2026-05-04 15:42 40.51454 21.30075 38139 ft 419 kts 268°
2026-05-04 15:43 40.50726 21.22532 38144 ft 419 kts 268°
2026-05-04 15:43 40.49989 21.14967 38156 ft 419 kts 268°
2026-05-04 15:44 40.49247 21.07387 38157 ft 418 kts 268°
2026-05-04 15:44 40.48557 20.99846 38136 ft 416 kts 271°
2026-05-04 15:45 40.48399 20.92337 38143 ft 412 kts 277°
2026-05-04 15:45 40.48807 20.84904 38147 ft 410 kts 280°
2026-05-04 15:46 40.49314 20.77463 38152 ft 409 kts 280°
2026-05-04 15:46 40.49811 20.70094 38153 ft 408 kts 280°
2026-05-04 15:47 40.50303 20.62684 38145 ft 408 kts 280°
2026-05-04 15:47 40.50789 20.55271 38143 ft 407 kts 280°
2026-05-04 15:48 40.51268 20.47887 38142 ft 407 kts 280°
2026-05-04 15:48 40.51973 20.36833 38143 ft 406 kts 280°
2026-05-04 15:49 40.52443 20.29435 38140 ft 406 kts 279°
2026-05-04 15:49 40.52902 20.22103 38137 ft 406 kts 279°
2026-05-04 15:50 40.53360 20.14702 38134 ft 405 kts 279°
2026-05-04 15:50 40.53807 20.07379 38136 ft 405 kts 279°
2026-05-04 15:51 40.54256 19.99988 38143 ft 405 kts 279°
2026-05-04 15:51 40.54697 19.92649 38150 ft 404 kts 279°
2026-05-04 15:52 40.55130 19.85351 38134 ft 403 kts 279°
2026-05-04 15:52 40.55559 19.78016 38134 ft 402 kts 279°
2026-05-04 15:53 40.55985 19.70700 38129 ft 402 kts 279°
2026-05-04 15:53 40.56402 19.63411 38124 ft 401 kts 279°
2026-05-04 15:54 40.56815 19.56137 38129 ft 401 kts 279°
2026-05-04 15:54 40.57226 19.48827 38125 ft 401 kts 279°
2026-05-04 15:55 40.57632 19.41509 38121 ft 401 kts 279°
2026-05-04 15:55 40.58029 19.34258 38120 ft 401 kts 279°
2026-05-04 15:56 40.58423 19.26971 38108 ft 401 kts 279°
2026-05-04 15:56 40.58815 19.19645 38115 ft 401 kts 278°
2026-05-04 15:57 40.59197 19.12371 38115 ft 400 kts 279°
2026-05-04 15:57 40.59574 19.05118 38116 ft 400 kts 279°
2026-05-04 15:58 40.60147 18.97891 38108 ft 396 kts 283°
2026-05-04 15:58 40.61091 18.90789 38109 ft 395 kts 284°
2026-05-04 15:59 40.62045 18.83715 38112 ft 395 kts 284°
2026-05-04 15:59 40.62998 18.76592 38112 ft 394 kts 284°
2026-05-04 16:00 40.63936 18.69537 38114 ft 394 kts 284°
2026-05-04 16:00 40.64872 18.62470 38110 ft 393 kts 284°
2026-05-04 16:01 40.65805 18.55382 38107 ft 393 kts 284°
2026-05-04 16:01 40.66731 18.48311 38109 ft 393 kts 284°
2026-05-04 16:02 40.67651 18.41245 38111 ft 392 kts 284°
2026-05-04 16:03 40.69015 18.30706 38111 ft 391 kts 284°
2026-05-04 16:03 40.69925 18.23641 38112 ft 392 kts 283°
2026-05-04 16:04 40.70828 18.16587 38110 ft 391 kts 283°
2026-05-04 16:04 40.72172 18.06026 38105 ft 389 kts 283°
2026-05-04 16:05 40.73058 17.99027 38110 ft 390 kts 283°
2026-05-04 16:06 40.74378 17.88505 38109 ft 390 kts 283°
2026-05-04 16:07 40.76127 17.74467 38108 ft 390 kts 283°
2026-05-04 16:08 40.77860 17.60410 38111 ft 390 kts 284°
2026-05-04 16:09 40.79999 17.42843 38105 ft 390 kts 284°
2026-05-04 16:10 40.81697 17.28731 38112 ft 389 kts 283°
2026-05-04 16:11 40.83370 17.14695 38110 ft 388 kts 283°
2026-05-04 16:12 40.85846 16.93614 38118 ft 389 kts 283°
2026-05-04 16:13 40.87479 16.79526 38115 ft 388 kts 283°
2026-05-04 16:14 40.89085 16.65502 37741 ft 386 kts 283°
2026-05-04 16:15 40.90262 16.55119 36768 ft 379 kts 283°
2026-05-04 16:16 40.91034 16.48271 36187 ft 379 kts 283°
2026-05-04 16:16 40.92059 16.39132 35083 ft 381 kts 283°
2026-05-04 16:17 40.92953 16.31080 33704 ft 381 kts 282°
2026-05-04 16:18 40.94099 16.20673 31745 ft 385 kts 281°
2026-05-04 16:18 40.94477 16.17213 31082 ft 387 kts 281°
2026-05-04 16:19 40.95850 16.06878 29625 ft 376 kts 285°
2026-05-04 16:19 40.96984 16.00221 28720 ft 371 kts 285°
2026-05-04 16:20 40.98653 15.90383 27454 ft 361 kts 285°
2026-05-04 16:20 40.99726 15.84006 26608 ft 355 kts 285°
2026-05-04 16:21 41.01305 15.74573 25343 ft 347 kts 284°
2026-05-04 16:22 41.02334 15.68417 24480 ft 344 kts 284°
2026-05-04 16:22 41.03877 15.59201 23135 ft 341 kts 284°
2026-05-04 16:23 41.05394 15.50070 21818 ft 339 kts 284°
2026-05-04 16:24 41.07388 15.37980 20066 ft 335 kts 284°
2026-05-04 16:25 41.08371 15.31981 19204 ft 333 kts 283°
2026-05-04 16:26 41.10272 15.20088 17460 ft 330 kts 277°
2026-05-04 16:26 41.07484 15.12003 16051 ft 335 kts 230°
2026-05-04 16:27 41.04417 15.07377 15572 ft 335 kts 230°
2026-05-04 16:28 40.99885 15.00448 14449 ft 330 kts 230°
2026-05-04 16:28 40.95396 14.93572 13148 ft 328 kts 229°
2026-05-04 16:29 40.89502 14.84591 11506 ft 320 kts 230°
2026-05-04 16:30 40.87347 14.76902 10505 ft 305 kts 284°
2026-05-04 16:31 40.89679 14.72479 9928 ft 292 kts 326°
2026-05-04 16:31 40.95408 14.72026 9562 ft 290 kts 22°
2026-05-04 16:32 40.99575 14.77402 9042 ft 274 kts 59°
2026-05-04 16:33 41.01451 14.81587 8707 ft 258 kts 59°
2026-05-04 16:33 41.03571 14.85313 8323 ft 271 kts 32°
2026-05-04 16:34 41.07116 14.85830 7917 ft 256 kts 335°
2026-05-04 16:34 41.08661 14.84706 7724 ft 248 kts 326°
2026-05-04 16:35 41.12533 14.80698 7137 ft 226 kts 293°
2026-05-04 16:35 41.11059 14.75418 7135 ft 224 kts 224°
2026-05-04 16:36 41.09985 14.73925 7130 ft 225 kts 230°
2026-05-04 16:36 41.08108 14.70584 7127 ft 227 kts 236°
2026-05-04 16:37 41.06403 14.67070 7116 ft 218 kts 238°
2026-05-04 16:37 41.05630 14.65430 7110 ft 207 kts 238°
2026-05-04 16:37 41.04116 14.62191 6981 ft 208 kts 238°
2026-05-04 16:38 41.02582 14.58907 6326 ft 212 kts 238°
2026-05-04 16:39 41.00114 14.53631 4854 ft 236 kts 239°
2026-05-04 16:39 40.98509 14.50197 4628 ft 208 kts 239°
2026-05-04 16:40 40.96988 14.46946 3655 ft 204 kts 238°
2026-05-04 16:40 40.95548 14.43883 2978 ft 186 kts 239°
2026-05-04 16:41 40.94224 14.41069 2316 ft 173 kts 239°
2026-05-04 16:41 40.92441 14.37391 1819 ft 152 kts 236°
2026-05-04 16:42 40.90866 14.33883 1037 ft 141 kts 238°
2026-05-04 16:43 40.89856 14.31740 573 ft 134 kts 236°
2026-05-04 16:43 40.88891 14.29692 249 ft 122 kts 235°
2026-05-04 16:43 40.88531 14.28927 263 ft 72 kts 239°
2026-05-04 16:44 40.88190 14.28395 284 ft 0 kts 207°
2026-05-04 16:45 40.88115 14.28344 287 ft 8 kts 207°
2026-05-04 16:46 40.88042 14.28200 287 ft 10 kts 249°
2026-05-04 16:46 40.87965 14.28155 289 ft 4 kts 125°
2026-05-04 16:47 40.87952 14.28264 291 ft 5 kts 101°
2026-05-04 16:47 40.87947 14.28279 291 ft 0 kts 124°
2026-05-04 16:48 40.87938 14.28289 292 ft 1 kts 161°
2026-05-04 16:48 40.87900 14.28288 292 ft 4 kts 188°
2026-05-04 16:49 40.87883 14.28285 293 ft 0 kts 186°